Weather observations for the past three days for
Trenton, Ont.
| Date | Time (edt) | Wind (mph) | Vis. (mi.) | Weather | Sky Cond. | Temperature (ºF) | Relative Humidity | Wind Chill (°F) | Heat Index (°F) | Pressure | Precipitation (in) | ||||||
|---|---|---|---|---|---|---|---|---|---|---|---|---|---|---|---|---|---|
| Air | Dwpt | 6 hour | altimeter (in) | sea level (mb) | 1 hr | 3 hr | 6 hr | ||||||||||
| Max. | Min. | ||||||||||||||||
| 06 | 16:00 | SW 13 | 15.00 | Mostly Cloudy | FEW020 SCT033 BKN065 | 48.2 | 41 | 76% | 43 | 29.82 | 1009.9 | ||||||
| 06 | 15:00 | SW 6 | 15.00 | Overcast | BKN031 OVC065 | 50 | 39.2 | 67% | 48 | 29.81 | 1009.7 | ||||||
| 06 | 14:00 | SW 6 | 15.00 | Mostly Cloudy | SCT020 BKN070 | 48.2 | 41 | 76% | 46 | 29.82 | 1010.0 | ||||||
| 06 | 13:00 | SW 3 | 15.00 | Overcast | SCT019 BKN041 OVC070 | 46.4 | 41 | 82% | 29.82 | 1010.2 | |||||||
| 06 | 12:00 | E 3 | 15.00 | Overcast | FEW020 SCT027 OVC070 | 46.4 | 39.2 | 76% | 29.81 | 1009.7 | |||||||
| 06 | 11:00 | E 3 | 15.00 | Light Rain | BKN022 OVC060 | 44.6 | 41 | 87% | 29.82 | 1010.0 | |||||||
| 06 | 10:00 | NW 3 | 15.00 | Light Rain | BKN026 OVC060 | 44.6 | 42.8 | 93% | 29.82 | 1010.2 | |||||||
| 06 | 09:00 | NE 3 | 15.00 | Light Rain | FEW009 SCT032 OVC060 | 44.6 | 42.8 | 93% | 29.81 | 1009.8 | |||||||
| 06 | 08:00 | SE 3 | 8.00 | Light Rain | FEW007 SCT020 OVC034 | 42.8 | 41 | 93% | 29.81 | 1009.7 | |||||||
| 06 | 07:00 | SE 3 | 15.00 | Light Rain | FEW006 FEW020 OVC034 | 42.8 | 41 | 93% | 29.8 | 1009.4 | |||||||
| 06 | 06:00 | E 2 | 10.00 | Light Rain | FEW006 FEW014 OVC036 | 42.8 | 42.8 | 100% | 29.8 | 1009.5 | |||||||
| 06 | 05:00 | Calm | 10.00 | Light Rain | FEW005 SCT023 OVC044 | 42.8 | 42.8 | 100% | 29.81 | 1009.6 | |||||||
| 06 | 04:00 | S 3 | 10.00 | Light Rain | FEW009 OVC032 | 42.8 | 42.8 | 100% | 29.81 | 1009.6 | |||||||
| 06 | 03:00 | SW 7 | 10.00 | Light Rain | BKN010 OVC031 | 44.6 | 42.8 | 93% | 41 | 29.82 | 1010.0 | ||||||
| 06 | 02:00 | S 5 | 15.00 | Overcast | BKN009 OVC046 | 44.6 | 42.8 | 93% | 43 | 29.82 | 1010.1 | ||||||
| 06 | 01:00 | S 5 | 15.00 | Overcast | BKN006 OVC050 | 44.6 | 42.8 | 93% | 43 | 29.82 | 1009.9 | ||||||
| 06 | 00:00 | S 6 | 15.00 | Overcast | BKN006 OVC060 | 44.6 | 42.8 | 93% | 42 | 29.81 | 1009.8 | ||||||
| 05 | 23:00 | SW 8 | 15.00 | Overcast | SCT005 OVC080 | 44.6 | 42.8 | 93% | 41 | 29.82 | 1010.0 | ||||||
| 05 | 22:00 | SW 10 | 15.00 | Overcast | FEW036 OVC075 | 44.6 | 42.8 | 93% | 40 | 29.82 | 1010.0 | ||||||
| 05 | 21:00 | Calm | 15.00 | Overcast | OVC060 | 48.2 | 37.4 | 66% | 29.77 | 1008.4 | |||||||
| 05 | 20:00 | NW 2 | 15.00 | Light Showers Rain | SCT050 OVC075 | 48.2 | 37.4 | 66% | 29.76 | 1007.9 | |||||||
| 05 | 19:00 | NW 3 | 15.00 | Overcast | BKN048 OVC075 | 48.2 | 41 | 76% | 29.75 | 1007.6 | |||||||
| 05 | 18:00 | NW 7 G 20 | 15.00 | Light Showers Rain | OVC070 | 46.4 | 41 | 82% | 43 | 29.74 | 1007.3 | ||||||
| 05 | 17:00 | NW 12 G 25 | 15.00 | Light Showers Rain | OVC070 | 53.6 | 41 | 63% | 29.71 | 1006.1 | |||||||
| 05 | 16:00 | W 10 | 15.00 | Overcast | SCT060 OVC080 | 59 | 42.8 | 55% | 29.66 | 1004.6 | |||||||
| 05 | 15:00 | NW 15 | 15.00 | Overcast | OVC055 | 60.8 | 46.4 | 59% | 29.65 | 1004.0 | |||||||
| 05 | 14:00 | NW 10 G 18 | 15.00 | Overcast | BKN038 BKN050 OVC085 | 62.6 | 50 | 64% | 29.62 | 1003.2 | |||||||
| 05 | 13:00 | SW 20 G 31 | 15.00 | Overcast | SCT035 OVC085 | 62.6 | 51.8 | 68% | 29.61 | 1002.6 | |||||||
| 05 | 12:00 | SW 17 G 30 | 15.00 | Overcast | FEW044 OVC080 | 60.8 | 50 | 68% | 29.6 | 1002.5 | |||||||
| 05 | 11:00 | SW 18 G 29 | 15.00 | Mostly Cloudy | FEW055 SCT085 BKN250 | 62.6 | 50 | 64% | 29.56 | 1001.2 | |||||||
| 05 | 10:00 | SW 16 G 25 | 15.00 | Mostly Cloudy | BKN055 BKN140 BKN250 | 59 | 50 | 72% | 29.56 | 1001.0 | |||||||
| 05 | 09:00 | S 10 | 15.00 | Overcast | SCT085 BKN140 OVC250 | 57.2 | 50 | 77% | 29.55 | 1000.9 | |||||||
| 05 | 08:00 | SW 8 | 15.00 | Mostly Cloudy | FEW085 BKN110 BKN250 | 55.4 | 50 | 82% | 29.55 | 1000.6 | |||||||
| 05 | 07:00 | SW 10 | 15.00 | Showers in Vicinity | SCT085 BKN120 OVC250 | 53.6 | 50 | 88% | 29.53 | 1000.3 | |||||||
| 05 | 06:00 | S 10 | 15.00 | Mostly Cloudy | FEW020 SCT120 BKN240 | 51.8 | 48.2 | 88% | 29.52 | 999.7 | |||||||
| 05 | 05:00 | S 8 | 15.00 | Mostly Cloudy | FEW120 BKN240 BKN290 | 51.8 | 46.4 | 82% | 29.51 | 999.6 | |||||||
| 05 | 04:00 | SW 10 | 15.00 | Overcast | SCT060 BKN140 OVC260 | 53.6 | 46.4 | 77% | 29.52 | 999.8 | |||||||
| 05 | 03:00 | SW 18 G 25 | 15.00 | Overcast | FEW050 BKN160 OVC250 | 57.2 | 48.2 | 72% | 29.53 | 1000.1 | |||||||
| 05 | 02:00 | SW 13 | 15.00 | Mostly Cloudy | FEW060 SCT240 BKN290 | 57.2 | 46.4 | 67% | 29.54 | 1000.2 | |||||||
| 05 | 01:00 | SW 7 | 15.00 | Mostly Cloudy | FEW026CB SCT060 BKN095 BKN250 | 57.2 | 42.8 | 59% | 29.55 | 1000.5 | |||||||
| 05 | 00:00 | SW 6 | 15.00 | Mostly Cloudy | BKN080 | 53.6 | 42.8 | 67% | 29.57 | 1001.3 | |||||||
| 04 | 23:00 | SW 5 | 15.00 | A Few Clouds | FEW070 FEW250 | 53.6 | 41 | 63% | 29.57 | 1001.3 | |||||||
| 04 | 22:00 | SW 7 | 15.00 | Partly Cloudy | FEW220 SCT260 | 55.4 | 42.8 | 63% | 29.58 | 1001.6 | |||||||
| 04 | 21:00 | SW 8 | 15.00 | Mostly Cloudy | BKN210 | 55.4 | 42.8 | 63% | 29.58 | 1001.6 | |||||||
| 04 | 20:00 | SW 9 | 15.00 | Mostly Cloudy | SCT220 BKN270 | 55.4 | 42.8 | 63% | 29.57 | 1001.5 | |||||||
| 04 | 19:00 | S 9 | 15.00 | Mostly Cloudy | BKN230 | 59 | 44.6 | 59% | 29.58 | 1001.7 | |||||||
| 04 | 18:00 | SW 9 | 15.00 | Mostly Cloudy | BKN250 | 62.6 | 44.6 | 52% | 29.58 | 1001.9 | |||||||
| 04 | 17:00 | SW 10 | 15.00 | Mostly Cloudy | BKN250 | 62.6 | 44.6 | 52% | 29.6 | 1002.3 | |||||||
| 04 | 16:00 | SW 10 | 15.00 | Mostly Cloudy | BKN250 | 62.6 | 44.6 | 52% | 29.61 | 1002.8 | |||||||
| 04 | 15:00 | SW 12 G 18 | 15.00 | Mostly Cloudy | FEW070 BKN250 | 60.8 | 44.6 | 55% | 29.63 | 1003.5 | |||||||
| 04 | 14:00 | SW 14 G 22 | 15.00 | Mostly Cloudy | BKN250 | 62.6 | 44.6 | 52% | 29.64 | 1003.7 | |||||||
| 04 | 13:00 | SW 13 G 20 | 15.00 | Mostly Cloudy | BKN250 | 60.8 | 44.6 | 55% | 29.66 | 1004.5 | |||||||
| 04 | 12:00 | SW 12 G 23 | 15.00 | Mostly Cloudy | FEW070 BKN250 | 59 | 44.6 | 59% | 29.67 | 1005.0 | |||||||
| 04 | 11:00 | SW 20 G 26 | 15.00 | Mostly Cloudy | BKN250 | 57.2 | 41 | 55% | 29.68 | 1005.2 | |||||||
| 04 | 10:00 | SW 16 G 28 | 15.00 | Partly Cloudy | SCT250 | 55.4 | 41 | 59% | 29.68 | 1005.3 | |||||||
| 04 | 09:00 | SW 16 G 23 | 15.00 | Partly Cloudy | SCT250 | 53.6 | 41 | 63% | 29.69 | 1005.5 | |||||||
| 04 | 08:00 | SW 15 G 23 | 15.00 | Partly Cloudy | FEW050 SCT250 | 50 | 41 | 71% | 45 | 29.69 | 1005.6 | ||||||
| 04 | 07:00 | SW 15 G 21 | 15.00 | Mostly Cloudy | BKN070 | 48.2 | 41 | 76% | 43 | 29.69 | 1005.5 | ||||||
| 04 | 06:00 | SW 14 G 21 | 15.00 | Overcast | OVC050 | 48.2 | 41 | 76% | 43 | 29.69 | 1005.6 | ||||||
| 04 | 05:00 | SW 15 G 21 | 15.00 | Overcast | OVC050 | 46.4 | 39.2 | 76% | 41 | 29.69 | 1005.5 | ||||||
| 04 | 04:00 | SW 14 G 22 | 15.00 | Light Showers Rain | OVC060 | 46.4 | 39.2 | 76% | 41 | 29.69 | 1005.5 | ||||||
| 04 | 03:00 | SW 10 | 15.00 | Mostly Cloudy | FEW065 BKN085 | 46.4 | 41 | 82% | 42 | 29.69 | 1005.7 | ||||||
| 04 | 02:00 | SW 8 | 15.00 | Overcast | OVC070 | 46.4 | 44.6 | 93% | 43 | 29.71 | 1006.2 | ||||||
| 04 | 01:00 | S 7 | 10.00 | Overcast | OVC075 | 44.6 | 42.8 | 93% | 41 | 29.74 | 1007.2 | ||||||
| 04 | 00:00 | S 9 | 12.00 | Light Showers Rain | OVC065 | 44.6 | 42.8 | 93% | 40 | 29.75 | 1007.6 | ||||||
| 03 | 23:00 | SW 8 | 8.00 | Light Showers Rain | FEW040 OVC050 | 44.6 | 42.8 | 93% | 41 | 29.77 | 1008.3 | ||||||
| 03 | 22:00 | SW 8 | 15.00 | Light Showers Rain | OVC046 | 42.8 | 39.2 | 87% | 39 | 29.78 | 1008.6 | ||||||
| 03 | 21:00 | SW 8 | 12.00 | Overcast | OVC045 | 44.6 | 37.4 | 76% | 41 | 29.78 | 1008.6 | ||||||
| 03 | 20:00 | SW 8 | 12.00 | Overcast | OVC045 | 44.6 | 32 | 61% | 41 | 29.78 | 1008.6 | ||||||
| 03 | 19:00 | SW 10 | 15.00 | Overcast | BKN045 OVC055 | 46.4 | 32 | 57% | 42 | 29.77 | 1008.4 | ||||||
| 03 | 18:00 | SW 7 | 15.00 | Overcast | BKN055 OVC210 | 48.2 | 32 | 54% | 46 | 29.77 | 1008.6 | ||||||
| 03 | 17:00 | SW 13 G 25 | 15.00 | Overcast | FEW065 SCT130 OVC210 | 53.6 | 30.2 | 41% | 29.76 | 1008.2 | |||||||
| Date | Time (edt) | Wind (mph) | Vis. (mi.) | Weather | Sky Cond. | Air | Dwpt | Max. | Min. | Relative Humidity | Wind Chill (°F) | Heat Index (°F) | altimeter (in) | sea level (mb) | 1 hr | 3 hr | 6 hr |
| 6 hour | |||||||||||||||||
| Temperature (ºF) | Pressure | Precipitation (in) | |||||||||||||||